Probability
0 0 0 0 0 0 0 0 0 0 0 0 0 0 0 0 0 0 0 0 0 0 0 0 0 0 0 3 3 0 3 3 3 6 0 0 0 0 0 0 0 0 0 0
0 0 0 0 0 0 0 0 0 0 0 0 0 0 0 0 0 0 0 0 0 0 0 0 0 0 6 16 23 23 26 23 13 10 3 0 0 0 0 0 0 0 0 0
0 0 0 0 0 0 0 0 0 0 0 0 0 0 0 0 0 0 0 0 0 0 0 0 3 6 16 29 65 87 87 65 29 13 0 0 0 0 0 0 0 0 0 0
0 0 0 0 0 0 0 0 0 0 0 0 0 0 0 0 0 0 0 0 0 0 0 6 16 23 48 65 87 90 87 81 58 26 13 6 3 0 0 0 0 0 0 0
0 0 0 0 0 0 0 0 0 0 0 0 0 0 0 0 0 0 0 0 0 0 3 19 26 45 61 87 87 87 65 65 45 35 32 26 6 3 0 0 0 0 0 0
0 0 0 0 0 0 0 0 0 0 0 0 0 0 0 0 0 0 0 0 0 3 16 23 29 61 74 74 74 71 58 55 48 39 19 26 23 10 6 0 0 0 0 0
0 0 0 0 0 0 0 0 0 0 0 0 0 0 0 0 0 0 0 0 0 16 16 26 26 42 52 61 65 71 71 84 55 61 48 35 32 16 6 0 0 0 0 0
0 0 0 0 0 0 0 0 0 0 0 0 0 0 0 0 0 0 0 0 6 13 19 19 23 42 55 55 52 65 77 81 61 68 68 45 35 16 3 3 0 0 0 0
0 0 0 0 0 0 0 0 0 0 0 0 0 0 0 0 0 0 0 0 0 0 6 16 13 32 52 65 65 77 87 81 74 71 58 42 29 29 16 0 0 0 0 0
0 0 0 0 0 0 0 0 0 0 0 0 0 0 0 0 0 0 0 0 0 0 0 3 13 26 29 48 61 74 84 87 77 55 45 35 16 13 10 0 0 0 0 0
0 0 0 0 0 0 0 0 0 0 0 0 0 0 0 0 0 0 0 0 0 0 0 0 3 10 19 29 32 52 68 71 65 55 29 23 10 6 0 0 0 0 0 0
0 0 0 0 0 0 0 0 0 0 0 0 0 0 0 0 0 0 0 0 0 0 0 0 0 6 10 26 32 29 45 48 48 35 23 10 6 3 0 0 0 0 0 0
0 0 0 0 0 0 0 0 0 0 0 0 0 0 0 0 0 0 0 0 0 0 0 0 0 0 0 6 32 35 32 39 39 26 23 6 3 3 0 0 0 0 0 0
0 0 0 0 0 0 0 0 0 0 0 0 0 0 0 0 0 0 0 0 0 0 0 0 0 0 0 0 6 19 35 32 32 23 13 10 3 3 0 0 0 0 0 0
0 0 0 0 0 0 0 0 0 0 0 0 0 0 0 0 0 0 0 0 0 0 3 0 0 0 0 0 0 3 6 19 23 13 13 10 3 3 0 0 0 0 0 0
0 0 0 0 0 0 0 0 0 0 0 0 0 0 0 0 0 0 0 0 0 0 3 0 0 0 0 0 0 0 3 6 19 16 10 6 3 0 0 0 0 0 0 0
0 0 0 0 0 0 0 0 0 0 0 0 0 0 0 0 0 0 0 0 0 0 0 0 0 0 0 0 0 0 0 3 3 3 3 0 0 0 0 0 0 0 0 0
0 0 0 0 0 0 0 0 0 0 0 0 0 0 0 0 0 0 0 0 0 0 0 0 0 0 0 0 0 0 0 0 0 0 0 0 0 0 0 0 0 0 0 0
0 0 0 0 0 0 0 0 0 0 0 0 0 0 0 0 0 0 0 0 0 0 0 0 0 0 0 0 0 0 0 0 0 0 0 0 0 0 0 0 0 0 0 0
0 0 0 0 0 0 0 0 0 0 0 0 0 0 0 0 0 0 0 0 0 0 0 0 0 0 0 0 0 0 0 0 0 0 0 0 0 0 0 0 0 0 0 0
0 0 0 0 0 0 0 0 0 0 0 0 0 0 0 0 0 0 0 0 0 0 0 0 0 0 0 0 0 0 0 0 0 0 0 0 0 0 0 0 0 0 0 0
0 0 0 0 0 0 0 0 0 0 0 0 0 0 0 0 0 0 0 0 0 0 0 0 0 0 0 0 0 0 0 0 0 0 0 0 0 0 0 0 0 0 0 0
0 0 0 0 0 0 0 0 0 0 0 0 0 0 0 0 0 0 0 0 0 0 0 0 0 0 0 0 0 0 0 0 0 0 0 0 0 0 0 0 0 0 0 0
0 0 0 0 0 0 0 0 0 0 0 0 0 0 0 0 0 0 0 0 0 0 0 0 0 0 0 0 0 0 0 0 0 0 0 0 0 0 0 0 0 0 0 0
0 0 0 0 0 0 0 0 0 0 0 0 0 0 0 0 0 0 0 0 0 0 0 0 0 0 0 0 0 0 0 0 0 0 0 0 0 0 0 0 0 0 0 0
0 0 0 0 0 0 0 0 0 0 0 0 0 0 0 0 0 0 0 0 0 0 0 0 0 0 0 0 0 0 0 0 0 0 0 0 0 0 0 0 0 0 0 0
Height
5856 5858 5858 5857 5857 5857 5856 5855 5855 5856 5855 5855 5855 5856 5857 5856 5856 5856 5855 5855 5854 5854 5854 5855 5855 5857 5859 5859 5859 5859 5859 5859 5859 5859 5859 5859 5859 5858 5857 5856 5855 5854 5853 5852
5853 5852 5852 5851 5850 5849 5848 5847 5846 5846 5845 5844 5845 5847 5849 5848 5847 5847 5847 5846 5846 5846 5847 5847 5849 5850 5852 5853 5854 5853 5853 5854 5854 5854 5854 5854 5854 5854 5853 5852 5851 5849 5848 5846
5847 5847 5845 5843 5842 5840 5839 5837 5836 5835 5834 5833 5833 5837 5840 5838 5837 5837 5838 5838 5837 5838 5838 5840 5842 5843 5846 5847 5848 5848 5848 5848 5848 5848 5848 5848 5848 5848 5848 5847 5846 5844 5842 5841
5842 5840 5838 5836 5834 5831 5829 5827 5825 5824 5823 5823 5823 5824 5830 5828 5827 5827 5827 5828 5829 5830 5831 5833 5834 5837 5839 5841 5841 5841 5841 5841 5842 5842 5842 5842 5842 5843 5842 5841 5840 5838 5836 5834
5839 5836 5833 5830 5827 5823 5820 5818 5816 5814 5813 5813 5813 5812 5818 5817 5817 5817 5818 5819 5821 5823 5824 5825 5827 5830 5832 5833 5833 5834 5834 5835 5836 5836 5837 5837 5837 5837 5836 5834 5833 5831 5829 5828
5835 5831 5827 5823 5819 5815 5812 5809 5807 5805 5804 5805 5805 5805 5807 5806 5806 5808 5809 5811 5813 5816 5817 5819 5820 5822 5824 5825 5826 5827 5828 5829 5830 5831 5832 5832 5832 5831 5830 5828 5827 5825 5823 5821
5832 5827 5821 5815 5810 5807 5802 5800 5797 5796 5796 5797 5798 5797 5798 5797 5798 5800 5801 5803 5805 5808 5810 5811 5813 5814 5816 5818 5818 5819 5821 5823 5825 5827 5827 5827 5826 5826 5824 5823 5821 5819 5817 5815
5826 5822 5814 5806 5800 5795 5792 5790 5789 5788 5788 5789 5791 5791 5791 5791 5792 5793 5795 5797 5798 5801 5803 5804 5805 5807 5808 5810 5812 5813 5816 5819 5821 5822 5822 5822 5821 5820 5818 5817 5815 5813 5811 5809
5817 5812 5805 5796 5788 5782 5779 5779 5779 5779 5779 5781 5783 5784 5784 5785 5786 5787 5788 5790 5792 5794 5796 5798 5798 5799 5800 5803 5805 5809 5812 5815 5817 5817 5817 5816 5815 5814 5813 5811 5809 5808 5805 5803
5806 5798 5792 5783 5776 5769 5766 5766 5768 5770 5771 5774 5776 5777 5778 5779 5780 5781 5782 5784 5786 5788 5789 5791 5792 5793 5794 5798 5801 5805 5809 5811 5811 5811 5810 5809 5808 5808 5807 5805 5803 5802 5799 5797
5795 5785 5776 5767 5760 5756 5755 5755 5757 5760 5764 5767 5770 5773 5772 5774 5774 5775 5777 5779 5781 5783 5784 5785 5785 5787 5790 5796 5800 5802 5804 5805 5805 5805 5804 5803 5802 5801 5800 5799 5797 5795 5793 5791
5783 5773 5764 5757 5751 5747 5747 5748 5750 5754 5758 5761 5765 5770 5768 5770 5771 5771 5772 5775 5777 5779 5781 5780 5782 5786 5790 5794 5797 5799 5799 5800 5799 5798 5797 5797 5796 5795 5793 5792 5790 5788 5787 5785
5773 5763 5756 5751 5749 5745 5743 5744 5746 5749 5753 5757 5761 5766 5765 5767 5768 5768 5769 5772 5774 5776 5778 5780 5782 5785 5788 5791 5793 5794 5795 5794 5794 5792 5791 5790 5789 5788 5786 5785 5784 5782 5780 5779
5766 5757 5751 5746 5742 5741 5741 5741 5743 5746 5750 5754 5758 5761 5763 5765 5766 5766 5767 5769 5772 5774 5776 5779 5781 5784 5786 5788 5789 5790 5790 5789 5788 5787 5785 5784 5782 5781 5780 5779 5777 5776 5775 5774
5762 5755 5748 5744 5741 5740 5740 5741 5743 5746 5750 5754 5757 5760 5761 5763 5764 5764 5765 5767 5769 5771 5773 5775 5777 5780 5781 5783 5784 5785 5785 5784 5783 5782 5780 5777 5775 5774 5774 5773 5772 5771 5770 5768
5759 5753 5749 5745 5743 5743 5743 5744 5745 5748 5751 5754 5757 5760 5761 5762 5763 5764 5765 5766 5767 5768 5770 5772 5774 5775 5777 5778 5779 5779 5779 5778 5777 5776 5773 5770 5769 5769 5769 5769 5768 5766 5765 5763
5758 5753 5750 5748 5747 5747 5747 5748 5749 5751 5753 5755 5758 5761 5762 5763 5764 5764 5765 5765 5767 5768 5769 5770 5772 5773 5773 5774 5774 5774 5774 5773 5772 5771 5769 5768 5766 5766 5765 5764 5762 5760 5759 5757
5760 5756 5754 5752 5753 5752 5754 5752 5753 5754 5756 5758 5760 5762 5763 5764 5765 5765 5766 5766 5767 5768 5769 5770 5771 5771 5772 5771 5771 5772 5771 5770 5769 5768 5766 5765 5763 5761 5760 5758 5756 5754 5752 5750
5763 5760 5758 5757 5756 5756 5757 5756 5757 5758 5760 5761 5763 5764 5765 5766 5767 5767 5768 5769 5769 5770 5771 5771 5772 5772 5771 5771 5771 5770 5769 5768 5766 5764 5763 5761 5759 5757 5755 5752 5750 5748 5746 5744
5768 5764 5763 5761 5761 5761 5762 5761 5762 5764 5764 5766 5766 5767 5768 5769 5769 5770 5771 5771 5772 5772 5773 5773 5773 5772 5772 5771 5770 5768 5767 5765 5763 5761 5759 5757 5755 5752 5749 5747 5744 5742 5740 5738
5774 5769 5767 5766 5766 5766 5766 5766 5768 5769 5770 5770 5770 5770 5771 5772 5772 5773 5773 5774 5775 5775 5774 5774 5773 5772 5771 5770 5768 5766 5765 5763 5760 5758 5755 5753 5750 5747 5744 5741 5739 5737 5734 5733
5779 5775 5773 5771 5771 5773 5771 5771 5772 5772 5772 5773 5773 5774 5774 5775 5775 5776 5776 5777 5777 5776 5776 5774 5773 5771 5770 5769 5767 5765 5763 5760 5757 5755 5752 5749 5746 5743 5740 5737 5734 5732 5730 5728
5783 5780 5777 5776 5777 5775 5775 5775 5775 5775 5776 5776 5776 5777 5777 5777 5778 5778 5778 5778 5778 5777 5776 5774 5773 5771 5769 5767 5765 5763 5760 5757 5754 5751 5748 5745 5742 5738 5735 5732 5730 5727 5726 5724
5787 5783 5781 5779 5778 5778 5778 5778 5778 5778 5779 5779 5779 5779 5779 5780 5780 5780 5780 5779 5779 5778 5776 5774 5772 5770 5768 5766 5763 5760 5757 5754 5750 5747 5744 5741 5737 5734 5731 5728 5726 5724 5722 5719
5791 5786 5783 5782 5781 5780 5780 5780 5781 5781 5781 5781 5781 5781 5782 5782 5782 5782 5781 5780 5779 5778 5776 5774 5772 5769 5767 5764 5761 5758 5755 5751 5748 5744 5740 5737 5733 5730 5727 5725 5722 5720 5718 5715
5794 5789 5786 5784 5783 5783 5782 5782 5782 5783 5782 5782 5782 5783 5783 5783 5783 5783 5782 5782 5780 5779 5777 5775 5772 5769 5766 5763 5760 5756 5753 5749 5746 5742 5738 5734 5731 5728 5725 5722 5720 5717 5715 5712
Wind_Speed
24 27 29 30 32 34 35 37 38 38 39 39 39 39 37 37 37 38 37 38 37 34 30 28 27 25 21 19 18 18 18 18 18 18 18 17 17 17 16 16 15 14 15 16
22 25 27 30 33 35 37 40 41 42 43 44 43 42 40 39 40 39 39 39 38 35 32 30 28 26 23 20 20 20 20 20 20 20 20 19 16 15 14 15 15 15 17 18
18 22 26 29 33 36 38 40 42 43 44 45 46 44 41 41 40 39 38 37 35 34 32 30 28 26 24 22 21 22 22 22 22 21 20 18 16 14 14 15 17 18 19 20
13 17 21 25 30 34 37 40 42 44 44 44 44 44 38 38 37 36 34 33 32 30 31 30 28 28 27 25 24 25 25 24 23 23 20 18 16 15 16 17 19 20 21 22
10 15 19 22 26 30 34 36 38 40 41 41 39 41 36 35 35 33 32 30 29 29 30 30 29 29 29 28 28 28 27 25 23 21 19 18 17 18 19 20 21 22 22 23
14 18 22 24 27 30 32 33 34 34 33 33 30 32 30 30 30 29 29 28 28 27 28 29 29 29 30 31 31 30 27 24 21 20 18 17 18 20 21 21 22 22 23 23
17 22 27 30 32 33 35 35 35 33 29 26 23 24 24 25 26 26 27 26 26 27 27 28 27 28 29 31 32 28 25 22 20 18 17 18 20 21 21 21 21 22 22 23
22 25 30 34 36 37 36 35 34 33 28 23 20 21 21 21 21 21 22 23 23 23 23 24 25 26 27 28 28 24 22 18 16 16 17 19 21 22 21 21 21 21 21 22
30 32 34 37 39 39 37 35 34 33 29 25 22 21 23 23 21 19 20 20 21 21 22 22 22 23 24 23 22 19 17 15 15 16 19 20 21 21 21 21 21 20 20 20
37 40 40 41 40 40 38 35 32 31 29 24 21 22 22 20 22 21 21 21 20 21 23 24 26 26 25 22 19 16 14 15 16 18 20 21 21 21 20 21 21 21 20 19
43 44 43 40 36 31 29 29 29 28 27 25 22 21 20 19 20 21 21 21 22 23 24 25 25 24 20 15 13 12 12 14 17 19 21 21 22 21 21 21 21 21 21 20
44 42 37 30 24 19 17 18 21 24 25 25 23 21 19 16 14 15 17 20 18 17 16 14 14 14 11 9 9 10 13 16 19 21 21 21 22 21 21 22 22 22 21 21
42 36 29 20 15 13 11 11 13 14 15 18 18 16 15 14 12 9 10 12 13 9 9 8 5 5 6 7 10 12 15 18 20 22 22 22 22 21 21 22 22 22 21 20
36 29 24 19 12 8 5 4 6 7 9 11 12 11 12 11 11 10 9 8 8 7 7 7 7 7 8 10 12 15 17 19 20 21 22 23 22 19 18 19 19 20 19 19
31 24 19 14 9 6 5 3 4 7 6 6 6 6 7 7 7 7 7 7 6 8 10 10 11 11 12 12 14 16 18 19 20 22 23 24 21 17 16 17 18 19 19 19
28 22 17 11 8 8 8 9 9 9 7 5 4 3 3 3 3 3 4 4 5 6 8 9 11 12 13 13 15 16 17 19 20 22 23 22 19 16 16 18 19 20 20 20
26 21 16 12 10 10 10 10 10 9 9 7 6 6 4 3 2 0 0 1 2 3 5 6 8 10 10 11 12 13 15 16 17 18 19 19 17 17 18 18 20 21 22 22
25 20 16 13 12 12 11 11 10 11 10 11 12 10 9 8 6 5 4 3 2 1 2 3 3 4 5 7 8 9 11 13 14 16 17 17 18 18 19 20 21 22 22 22
24 18 15 13 14 13 12 12 12 13 12 12 12 11 10 10 9 9 8 7 5 5 4 3 1 1 3 5 7 10 12 14 15 16 17 17 18 19 19 20 21 21 21 21
24 19 15 14 13 14 13 13 13 13 13 12 12 12 11 10 10 10 9 8 6 5 4 2 1 3 5 7 9 11 12 14 14 15 16 16 17 18 18 19 20 20 20 20
24 19 16 15 14 14 14 13 13 13 13 12 11 11 11 11 11 11 10 8 7 5 4 3 4 6 7 8 10 11 13 14 15 16 16 17 17 18 19 19 20 19 19 18
24 20 16 15 14 14 13 12 13 13 13 12 11 10 11 11 12 11 10 9 8 7 6 7 7 8 9 10 11 13 14 15 16 17 17 17 18 19 19 19 18 18 17 17
22 18 15 13 12 11 11 11 11 11 11 10 9 9 10 11 11 10 10 9 9 9 10 10 10 10 11 12 12 13 15 16 17 17 18 18 19 19 19 18 17 16 16 17
22 16 13 12 11 9 9 9 9 9 9 8 8 8 9 9 9 9 9 10 10 11 11 11 12 12 13 14 14 15 16 17 18 18 18 18 18 17 16 15 15 15 16 17
26 16 11 10 10 9 8 6 7 7 6 7 7 8 8 8 8 8 9 10 11 12 12 12 13 14 15 15 15 15 16 16 16 16 16 16 15 14 13 13 13 14 15 17
31 20 11 8 9 8 7 6 6 6 5 5 6 6 6 6 6 7 8 9 11 12 13 14 14 15 15 15 16 17 17 16 15 15 14 13 13 12 12 12 13 13 14 15
Wind_Direction
252 254 256 259 261 261 261 262 262 262 262 263 264 266 269 271 273 275 278 278 277 273 271 272 275 278 278 278 278 277 276 273 273 273 273 276 278 280 283 287 288 287 290 290
259 260 261 262 263 264 265 266 266 266 266 266 266 267 270 273 275 277 278 279 274 268 266 265 268 270 272 271 272 271 271 271 273 273 275 278 280 280 282 285 288 290 289 289
266 266 266 265 265 265 265 266 266 267 267 268 269 268 269 272 274 276 277 278 273 266 261 261 261 264 265 265 267 267 268 269 271 273 276 279 282 283 285 288 291 293 293 291
278 279 276 274 271 269 267 266 266 267 267 267 268 269 267 268 270 272 274 276 270 263 257 255 255 258 259 260 261 265 266 269 271 274 277 281 284 285 288 291 292 293 293 291
313 303 299 294 289 283 278 275 272 271 270 269 269 269 266 264 264 265 267 267 265 260 255 252 250 248 250 252 253 255 259 263 267 272 276 281 284 289 293 294 294 294 293 291
323 314 311 309 304 298 294 288 284 280 277 275 272 269 266 261 259 259 260 258 257 256 254 249 247 246 248 248 246 250 251 254 259 266 273 279 285 290 292 293 293 293 292 290
321 317 312 308 305 301 295 292 290 286 280 277 271 267 262 257 254 253 252 252 249 249 246 245 244 244 246 245 244 244 244 248 255 262 270 278 284 287 290 291 292 292 290 288
315 314 310 304 299 295 289 284 281 280 277 271 265 260 256 252 251 248 244 241 236 235 235 237 238 239 242 242 244 243 241 247 255 264 272 278 282 285 288 290 291 291 289 287
316 312 307 302 296 290 284 275 271 270 270 267 264 259 256 255 249 241 236 233 228 227 227 229 233 233 234 234 234 232 237 247 256 265 272 277 281 285 288 288 288 289 289 288
317 312 308 301 294 288 281 272 263 258 260 263 262 258 256 253 251 243 235 232 229 229 227 225 224 223 219 221 223 222 237 248 259 267 272 277 281 283 286 287 286 286 287 288
319 314 311 306 301 291 279 268 258 253 254 258 260 257 257 259 254 247 236 234 236 236 233 231 225 221 212 211 219 227 241 255 264 268 273 277 279 280 283 288 289 287 286 285
321 318 316 313 308 298 281 267 257 251 250 252 253 256 258 269 268 257 246 238 241 240 237 241 234 224 217 213 221 236 249 258 264 269 273 277 279 282 285 289 291 291 287 284
325 325 324 318 308 299 285 265 257 249 245 242 242 248 259 279 286 288 278 252 240 247 244 249 245 239 237 230 237 249 255 259 264 271 275 279 280 282 286 290 292 291 288 284
331 333 335 334 328 328 321 265 245 230 218 219 228 249 266 279 289 296 294 276 270 264 256 245 250 260 255 248 247 252 260 265 270 275 280 284 280 280 286 290 293 292 288 284
340 342 344 343 341 357 35 90 128 157 168 189 215 243 267 282 291 290 293 289 272 261 260 255 253 258 258 256 256 260 264 268 273 279 283 282 284 288 290 291 293 292 290 286
352 356 1 6 17 35 61 87 102 115 132 144 156 188 248 286 282 290 295 281 261 253 249 249 255 259 261 262 266 268 270 274 277 282 285 290 294 298 293 293 294 293 291 289
5 11 20 32 46 63 74 83 92 102 116 117 117 116 103 64 44 74 300 261 265 239 234 244 252 257 261 264 271 278 282 283 284 287 293 299 298 296 295 295 295 293 292 291
16 26 38 49 57 65 77 84 88 96 104 105 105 103 100 92 89 92 85 79 79 113 181 224 248 264 274 280 281 282 285 290 293 295 296 298 298 298 298 296 296 295 293 291
23 35 45 55 58 66 76 83 85 91 96 105 107 102 96 92 92 89 84 83 83 86 94 99 110 280 279 282 284 286 289 294 296 297 297 298 299 299 299 298 299 298 296 294
29 41 51 60 65 67 76 83 85 92 99 104 106 105 100 97 97 92 89 87 84 81 74 54 339 299 294 295 296 297 299 300 301 300 300 302 303 303 302 301 301 299 297 294
36 46 60 70 71 71 77 85 88 96 102 100 97 102 105 103 100 96 91 85 76 64 43 3 333 322 318 316 314 312 311 310 309 307 306 307 307 307 306 305 303 300 297 295
38 50 63 71 74 76 81 84 90 101 99 97 94 100 107 105 101 96 88 75 58 38 18 2 351 342 334 328 323 319 316 313 311 309 308 307 307 308 307 306 303 300 297 295
35 48 60 69 76 80 85 89 94 100 98 93 91 98 108 106 100 90 76 59 40 24 12 4 357 349 342 335 330 326 322 319 315 311 309 307 307 308 307 306 304 301 299 298
29 41 56 66 75 86 93 98 99 100 91 85 85 96 108 105 96 83 63 44 30 20 13 7 1 354 349 343 339 335 330 325 321 317 314 312 312 313 313 311 309 307 305 304
25 34 50 65 77 88 98 102 101 101 93 83 86 98 102 98 87 69 49 33 23 18 13 9 4 358 354 350 347 344 339 335 331 327 324 323 324 325 324 322 318 315 313 311
23 28 40 59 73 84 92 98 102 101 98 94 99 101 96 88 76 58 40 25 17 14 11 7 4 1 359 357 356 353 352 352 350 347 346 346 348 348 345 339 334 330 326 325